www.pogodaiklimat.ru

Погода и климат >> Архив погоды >> Ирак >> Nasiriya


ПОГОДА в Nasiriya

  • Прогноз погоды в Nasiriya
  • Монитор погоды в Nasiriya
  • Климат города

АРХИВ ПОГОДЫ в Nasiriya

Время (UTC), дата Ветер
(напр.,м/с)
 
Видим.   Явления Облачность Т
(С)
Тd
(С)
f
(%)
Тe
(С)
Тes
(С)
Комфортность P
(гПа)
Po
(гПа)
Тmin
(С)
Tmax
(С)
R
(мм)
R24
(мм)
S
(см)
09 11.08 ЮВ 2 10 км ясно +47.4 +9.5 11 +46 +66 опасность
перегрева
998.6 999.0
12 11.08 ЮВ 2 10 км ясно +47.4 +9.5 11 +46 +57 опасность
перегрева
998.6 999.0
15 11.08 Ю 1 10 км ясно +48.4 +5.5 8 +46 +46 опасность
перегрева
997.0 997.0
21 11.08 З 1 10 км 3/0
[]
+36.6 +12.6 24 +37 +37 очень
жарко
998.4 998.0
00 12.08 СЗ 1 10 км 4/0
[Ac trans]
+34.4 +10.4 23 +34 +34 очень
жарко
998.4 998.0
03 12.08 СЗ 1 10 км 8/8 960 м
[Sc]
+33.2 +11.5 27 +33 +33 жарко 998.7 999.0
06 12.08 З 2 10 км 6/6 960 м
[Sc]
+38.0 +12.9 22 +38 +42 очень
жарко
1000.2 1000.0 +33.0
09 12.08 Ю 2 10 км 3/0
[Ac trans]
+47.8 +10.4 11
12 12.08 З 3 10 км 1/0
[Ci fib]
+49.8 +7.7 9 +48 +57 опасность
перегрева
997.8 998.0
18 12.08 ЮВ 1 10 км ясно +39.2 +13.0 21 +39 +39 очень
жарко
998.4 998.0 +50.0
00 13.08 ЮЗ 1 10 км ясно +32.4 +13.6 32 +34 +34 очень
жарко
998.0 998.0
03 13.08 З 1 10 км ясно +31.4 +10.6 28 +31 +32 жарко 998.8 999.0
06 13.08 СЗ 2 10 км ясно +38.8 +12.2 20 +38 +50 очень
жарко
1000.0 1000.0 +31.2
09 13.08 СЗ 3 10 км 5/0
[Ci sp]
+48.8 +12.5 12 +48 +63 опасность
перегрева
999.4 999.0
12 13.08 З 3 10 км 4/0
[Ci sp]
+51.6 +7.1 8 +49 +58 опасность
перегрева
998.2 998.0
15 13.08 СЗ 3 10 км 4/0
[Ci sp]
+48.4 +11.1 12 +48 +48 опасность
перегрева
998.1 998.0
18 13.08 З 1 10 км ясно +40.6 +16.2 24 +42 +42 опасность
перегрева
999.3 999.0 +52.0
21 13.08 СЗ 3 10 км ясно +40.0 +10.6 17 +39 +39 очень
жарко
999.8 1000.0
00 14.08 СЗ 3 10 км ясно +36.0 +10.5 21 +35 +35 очень
жарко
999.1 999.0
03 14.08 СЗ 2 10 км ясно +31.0 +9.9 27 +31 +31 жарко 1000.5 1001.0
06 14.08 СЗ 3 10 км ясно +38.4 +12.1 21 +38 +48 очень
жарко
1001.5 1002.0 +30.4
12 14.08 С 1 10 км 3/3 900 м
[Cu hum]
+50.4 +12.4 11 +50 +59 опасность
перегрева
999.4 999.0
15 14.08 СЗ 3 10 км 3/3 1050 м
[Sc]
+48.0 +10.9 12 +47 +47 опасность
перегрева
999.3 999.0
18 14.08 СЗ 4 10 км ясно +41.4 +13.2 19 +41 +41 опасность
перегрева
1001.2 1001.0 +51.4
21 14.08 С 3 10 км ясно +38.0 +12.7 22 +38 +38 очень
жарко
1001.2 1001.0
00 15.08 СЗ 3 10 км ясно +34.8 +13.1 27 +35 +35 очень
жарко
1000.8 1001.0
03 15.08 СЗ 2 10 км ясно +34.8 +13.6 28 +36 +36 душно 1001.3 1001.0
06 15.08 З 3 10 км 3/0
[Ci sp]
+41.0 +16.0 23 +42 +51 опасность
перегрева
1002.4 1002.0 +34.0
09 15.08 С 4 10 км ясно +46.4 +11.1 13 +45 +59 опасность
перегрева
1001.8 1002.0
12 15.08 З 3 10 км ясно +48.6 +10.3 11 +47 +56 опасность
перегрева
1000.3 1000.0
15 15.08 З 3 10 км 4/0
[Ci sp]
+46.0 +11.5 13 +45 +45 опасность
перегрева
999.8 1000.0
18 15.08 З 3 10 км ясно +49.0 +11.4 11 +48 +48 опасность
перегрева
1001.8 1002.0
21 15.08 С 4 10 км ясно +39.0 +10.4 18 +38 +38 очень
жарко
1001.5 1002.0
00 16.08 С 4 10 км ясно +37.4 +12.9 23 +37 +37 очень
жарко
1000.6 1001.0
03 16.08 СЗ 4 10 км 4/0
[Ci sp]
+35.0 +11.4 24 +35 +35 очень
жарко
1000.7 1001.0
06 16.08 СЗ 3 10 км ясно +40.6 +11.2 17 +39 +49 очень
жарко
1004.2 1004.0 +33.0
09 16.08 СВ 2 10 км 3/0
[Ci fib]
+46.6 +12.1 14 +46 +65 опасность
перегрева
1002.2 1002.0
12 16.08 В 3 10 км 3/0
[Ci sp]
+48.0 +13.8 14 +48 +57 опасность
перегрева
1000.8 1001.0
18 16.08 В 3 10 км 4/4 960 м
[Sc]
+41.0 +13.5 20 +41 +41 опасность
перегрева
1001.3 1001.0 +48.6
21 16.08 ЮВ 2 10 км 5/5 960 м
[Sc]
+38.4 +16.0 27 +40 +40 очень
душно
1001.0 1001.0
00 17.08 СВ 2 10 км ясно +37.2 +14.5 26 +38 +38 душно 1000.1 1000.0
09 17.08 Ю 1 10 км 6/6 1140 м
[Sc]
+47.6 +13.0 14 +48 +57 опасность
перегрева
1001.9 1002.0
12 17.08 ЮВ 3 10 км 4/0
[Ac trans]
+49.4 +10.2 10 +48 +55 опасность
перегрева
1000.2 1000.0
15 17.08 В 3 10 км 4/0
[Ac trans]
+45.0 +14.5 17 +45 +46 опасность
перегрева
999.8 1000.0
18 17.08 СЗ 1 10 км 1/0
[]
+40.0 +15.7 24 +41 +41 опасность
перегрева
1001.4 1001.0 +49.5
21 17.08 В 1 10 км ясно +36.0 +17.6 34 +39 +39 очень
душно
1001.0 1001.0
00 18.08 З 1 10 км 5/5 1140 м
[Sc]
+34.4 +17.4 36 +38 +38 очень
душно
1000.7 1001.0
03 18.08 Ю 1 10 км 6/6 1140 м
[Sc]
+33.4 +15.1 33 +35 +35 душно 1002.0 1002.0
06 18.08 ЮЗ 2 10 км 8/0
[Ac trans Cs]
+40.4 +15.5 23 +42 +50 опасность
перегрева
1002.6 1003.0 +32.4

 

Местоположение метеостанции Nasiriya (Ирак): широта 31.08 долгота 46.23 высота над уровнем моря 3 м.

В архиве по умолчанию представлена погода в Nasiriya за последнюю неделю. Архивные данные за месяц целиком и за предыдущие месяцы, начиная с января 2011 года, Вы можете получить, выбрав интересующий диапазон дат из раскрывающегося списка и нажав кнопку "Ввод!".

Внимание! Время в таблицах - всемирное. Для получения местного времени необходимо прибавить поправку, которая в Nasiriya равна 3 ч.

Смотрите также архив погоды в соседних городах и на ближайших метеорологических станциях:

Погода в Rifai (Ирак) (72 км)
Погода в Samawah (Ирак) (95 км)
Погода в Kut-Al-Hai (Ирак) (122 км)
Погода в Amarah (Ирак) (124 км)
Погода в Diwaniya (Ирак) (155 км)
Погода в Basrah (Ирак) (159 км)
Погода в Basrah Airport (Ирак) (161 км)
Погода в Ali Al-Gharbi (Ирак) (161 км)
Погода в Ubaydah Bin Al Jarrah (Ирак) (163 км)
Погода в Mitribah (Кувейт) (178 км)

Пояснения к столбцам:

Ветер - указаны скорость ветра в м/с - средняя за 10 мин, порывы в срок и между сроками (в фигурных скобках) и направление, откуда дует ветер: С - северный, СВ - северо-восточный, В - восточный, ЮВ - юго-восточный, Ю - южный, ЮЗ - юго-западный, З - западный, СЗ - северо-западный.
Видимость - горизонтальная дальность видимости в метрах или километрах. При видимости от 1 до 10 км при отсутствии осадков обычно наблюдается дымка, при ухудшении видимости до 1 км и менее - туман. В сухую погоду видимость может ухудшаться дымом, пылью или мглою.
Явления - указаны атмосферные явления, наблюдавшиеся в срок или в последний час перед сроком; фигурными скобками обозначены явления, наблюдавшиеся между сроками (за 1-3 часа до срока); квадратными скобками обозначены град или гололедные отложения с указанием их диаметра в мм.
Облачность - указаны через наклонную черту общая и нижняя облачность в баллах и высота нижней границы облаков в метрах; квадратными скобками обозначены формы облаков: Ci - перистые, Cs - перисто-слоистые, Cc - перисто-кучевые, Ac - высококучевые, As - высокослоистые, Sc - слоисто-кучевые, Ns - слоисто-дождевые, Cu - кучевые, Cb - кучево-дождевые. Подробнее классификацию облаков см. в Атласе облаков (PDF).
T - Температура воздуха - температура, измеренная на высоте 2 м над землей.
Td - Температура точки росы - температура, при понижении до которой содержащийся в воздухе водяной пар достигнет насыщения.
f - Относительная влажность воздуха - влажноcть воздуха, измеренная на высоте 2 м над землей.
Te - Эффективная температура - температура, которую ощущает одетый по сезону человек в тени. Характеристика душности погоды. При расчете учитывается влияние влажности воздуха и скорости ветра на теплоощущения человека.
Tes - Эффективная температура на солнце - температура, которую ощущает человек, с поправкой на солнечный нагрев. Характеристика знойности погоды. Зависит от высоты солнца над горизонтом, облачности и скорости ветра. Ночью, в пасмурную погоду, а также при ветре 12 м/с и более поправка равна нулю.
P - Атмосферное давление - приведенное к уровню моря атмосферное давление.
Po - Атмосферное давление - измеренное на уровне метеостанции атмосферное давление.
Tmin - Минимальная температура - минимум температуры воздуха на высоте 2 м над землей.
Tmax - Максимальная температура - максимум температуры воздуха на высоте 2 м над землей.
R - Количество осадков - Количество выпавших осадков за период времени, мм. При наведении курсора мыши на число - период времени, за который выпало указанное количество осадков.
R24 - Количество осадков - Количество выпавших осадков за 24 часа, мм.
S - Снежный покров - Высота снежного покрова, см. При наведении курсора мыши на число - состояние снежного покрова и степень покрытия местности в баллах.